Home > Weather > Ulsteinvik > Past weeks

Flag for Norway Weather for the Past 2 Weeks in Ulsteinvik, Norway

Now
39 °F

Light rain. Partly sunny.


Feels Like: 32 °F
Forecast: 42 / 44 °F
Wind: 13 mph from East

Location: Alesund / Vigra

Current Time: Feb 7, 2016 at 9:40:49 AM

Latest Report: Feb 7, 2016 at 8:50 AM


Visibility: N/A

Pressure: 28.94 "Hg

Humidity: 93%

Dew point: 37 °F

Location of UlsteinvikLocation

Historic Weather in Ulsteinvik — Graph

°F

Ulsteinvik Temperature Yesterday

Maximum temperature yesterday: 46 °F (at 12:20 AM)
Minimum temperature yesterday: 37 °F (at 8:20 AM)
Average temperature yesterday: 41 °F

High & Low Weather Summary for the Past Weeks

 TemperatureHumidityPressure
High57 °F (Jan 25, 5:20 PM)100% (Jan 31, 2:20 PM)29.98 "Hg (Jan 31, 2:20 PM)
Low32 °F (Jan 31, 12:20 PM)56% (Feb 1, 1:50 AM)28.20 "Hg (Jan 29, 6:50 PM)
Average40 °F81%29.27 "Hg
* Reported Jan 23 8:50 AM — Feb 7 8:20 AM, Ulsteinvik, Weather by CustomWeather, © 2016

Note: Actual official high and low records may vary slightly from our data, if they occured in-between our weather recording intervals... More about our weather records

Advertising

Ulsteinvik Weather History for the Previous 24 Hours

 ConditionsComfort  
Time TempWeatherWind HumidityBarometerVisibility
8:20 AM
Sun, Feb 7
39 °FLight rain. Passing clouds.12 mph93%28.94 "HgN/A
7:50 AM39 °FLight rain. Fog.10 mph93%28.97 "HgN/A
7:20 AM37 °FDrizzle. Fog.13 mph93%28.97 "HgN/A
6:50 AM37 °FLight rain. Fog.9 mph93%28.97 "HgN/A
6:20 AM37 °FLight rain. Fog.6 mph93%29.00 "HgN/A
5:50 AM37 °FRain. Fog.14 mph93%29.00 "Hg4 mi
5:20 AM37 °FLight rain. Fog.16 mph93%29.00 "Hg3 mi
4:50 AM37 °FLight rain. Light fog.14 mph87%29.03 "Hg6 mi
4:20 AM37 °FLight rain. Fog.16 mph87%29.03 "Hg3 mi
3:50 AM39 °FPassing clouds.14 mph81%29.03 "HgN/A
3:20 AM39 °FLight rain. Overcast.15 mph75%29.06 "HgN/A
2:50 AM39 °FLight rain. Overcast.14 mph75%29.06 "HgN/A
2:20 AM41 °FPassing clouds.14 mph66%29.09 "HgN/A
1:50 AM41 °FPassing clouds.13 mph66%29.12 "HgN/A
1:20 AM41 °FPassing clouds.13 mph66%29.12 "HgN/A
12:50 AM41 °FOvercast.14 mph61%29.15 "HgN/A
11:50 PM
Sat, Feb 6
39 °FPassing clouds.7 mph70%29.18 "HgN/A
11:20 PM39 °FPassing clouds.7 mph70%29.21 "HgN/A
10:50 PM37 °FClear.6 mph81%29.21 "Hg10 mi
9:50 PM39 °FClear.7 mph70%29.24 "Hg10 mi
9:20 PM39 °FClear.9 mph70%29.27 "HgN/A
8:50 PM37 °FClear.8 mph81%29.27 "HgN/A
8:20 PM37 °FPassing clouds.5 mph75%29.30 "HgN/A
7:50 PM37 °FPassing clouds.5 mph70%29.30 "HgN/A
7:20 PM39 °FPassing clouds.7 mph70%29.30 "HgN/A
6:50 PM41 °FPassing clouds.6 mph70%29.33 "HgN/A
6:20 PM39 °FPassing clouds.6 mph75%29.33 "HgN/A
5:50 PM41 °FPassing clouds.7 mph70%29.33 "HgN/A
5:20 PM41 °FPassing clouds.8 mph70%29.33 "HgN/A
4:50 PM41 °FPassing clouds.10 mph70%29.33 "HgN/A
4:20 PM41 °FScattered clouds.10 mph70%29.33 "HgN/A
3:50 PM41 °FPassing clouds.10 mph76%29.33 "HgN/A
3:20 PM43 °FPassing clouds.12 mph66%29.33 "HgN/A
2:50 PM41 °FScattered clouds.10 mph70%29.36 "HgN/A
2:20 PM41 °FScattered clouds.14 mph76%29.36 "HgN/A
1:50 PM41 °FPassing clouds.12 mph76%29.36 "HgN/A
1:20 PM41 °FScattered clouds.14 mph76%29.36 "HgN/A
12:50 PM41 °FScattered clouds.16 mph76%29.36 "HgN/A
12:20 PM39 °FScattered clouds.17 mph87%29.36 "HgN/A
11:50 AM39 °FScattered clouds.16 mph87%29.33 "HgN/A
11:20 AM39 °FScattered clouds.16 mph87%29.33 "HgN/A
10:50 AM37 °FDrizzle. Partly sunny.20 mph93%29.30 "HgN/A
10:20 AM37 °FDrizzle. Partly sunny.20 mph93%29.30 "HgN/A
9:50 AM37 °FDrizzle. Partly sunny.17 mph93%29.27 "HgN/A
9:20 AM37 °FDrizzle. Partly sunny.16 mph93%29.24 "HgN/A
Weather by CustomWeather, © 2016

See weather overviewHow to use our weather pages